Hourly Data Report for March 26, 2017

All times are specified in Local Standard Time (LST). Add 1 hour to adjust for Daylight Saving Time where and when it is observed.

TORONTO CITY
ONTARIO

43°40'00.000" N
79°24'00.000" W
112.50 m
6158355
71508
XTO

Download Data

Hourly Data (March 2017)
Hourly Data Report for March 26, 2017
TIME Temp Definition
°C
Dew Point Definition
°C
Rel Hum Definition
%
Wind Dir Definition
10's deg

Wind Spd Definition
km/h
Visibility Definition
km
Stn Press Definition
kPa
Hmdx Definition


Wind Chill Definition


Weather Definition


00:00 2.1 -1.5 77 LegendMM LegendMM   101.38     LegendNANA
01:00 1.8 -1.5 79 LegendMM LegendMM   101.31     LegendNANA
02:00 1.8 -0.9 82 LegendMM LegendMM   101.31     LegendNANA
03:00 1.1 -0.5 89 LegendMM LegendMM   101.17     LegendNANA
04:00 1.4 -0.6 87 LegendMM LegendMM   101.11     LegendNANA
05:00 1.6 -0.5 86 LegendMM LegendMM   101.04     LegendNANA
06:00 2.1 0.2 87 LegendMM LegendMM   101.02     LegendNANA
07:00 2.4 0.6 88 LegendMM LegendMM   100.99     LegendNANA
08:00 2.6 1.0 89 LegendMM LegendMM   100.90     LegendNANA
09:00 2.8 1.0 89 LegendMM LegendMM   100.86     LegendNANA
10:00 2.9 0.6 85 LegendMM LegendMM   100.82     LegendNANA
11:00 3.0 0.7 85 LegendMM LegendMM   100.81     LegendNANA
12:00 2.6 1.1 90 LegendMM LegendMM   100.72     LegendNANA
13:00 2.7 1.0 88 LegendMM LegendMM   100.65     LegendNANA
14:00 3.3 0.9 84 LegendMM LegendMM   100.50     LegendNANA
15:00 4.1 1.1 81 LegendMM LegendMM   100.41     LegendNANA
16:00 4.4 1.3 81 LegendMM LegendMM   100.37     LegendNANA
17:00 4.8 1.8 81 LegendMM LegendMM   100.32     LegendNANA
18:00 5.0 2.0 81 LegendMM LegendMM   100.26     LegendNANA
19:00 4.7 2.3 84 LegendMM LegendMM   100.24     LegendNANA
20:00 5.2 2.7 84 LegendMM LegendMM   100.21     LegendNANA
21:00 5.7 3.2 84 LegendMM LegendMM   100.17     LegendNANA
22:00 6.0 4.2 88 LegendMM LegendMM   100.12     LegendNANA
23:00 6.2 4.6 90 LegendMM LegendMM   100.07     LegendNANA

Notes on Data Quality.

Legend

  • E = Estimated
  • M = Missing
  • NA = Not Available
Date modified: